EW7535 Weather Reports


Display with metric or nautical units.
time (UTC)temp
F
wind
direction
speed
MPH
gust
MPH
rain 1hr
in
rain 24hr
in
rain mn
in
humidity
%
barometer
mb
20260510023057 89 299 1.0 5.0 0.00 0.00 0.00 12 1003.3
20260510021554 91 337 2.0 6.0 0.00 0.00 0.00 11 1003.2
20260510020055 93 292 0.0 7.0 0.00 0.00 0.00 10 1003.1
20260510014553 94 4 3.0 11.0 0.00 0.00 0.00 10 1003.0
20260510013104 95 304 3.0 11.0 0.00 0.00 0.00 10 1002.9
20260510011550 95 302 5.0 14.0 0.00 0.00 0.00 9 1002.9
20260510010101 96 301 6.0 13.0 0.00 0.00 0.00 9 1002.8
20260510004556 96 289 7.0 12.0 0.00 0.00 0.00 9 1003.0
20260510003046 97 299 6.0 12.0 0.00 0.00 0.00 9 1003.0
20260510001516 97 260 9.0 16.0 0.00 0.00 0.00 9 1003.0
20260510000014 97 295 4.0 18.0 0.00 0.00 0.00 9 1003.2
20260509234559 97 41 8.0 15.0 0.00 0.00 0.00 9 1003.2
20260509233041 98 295 3.0 9.0 0.00 0.00 0.00 9 1003.4
20260509231510 98 300 3.0 10.0 0.00 0.00 0.00 9 1003.5
20260509230008 97 278 8.0 15.0 0.00 0.00 0.00 9 1003.7
20260509224504 98 274 8.0 16.0 0.00 0.00 0.00 10 1003.9
20260509223001 96 288 9.0 17.0 0.00 0.00 0.00 10 1004.1
20260509221611 99 323 3.0 10.0 0.00 0.00 0.00 9 1004.2
20260509220106 97 285 6.0 13.0 0.00 0.00 0.00 9 1004.5
20260509214555 98 262 1.0 13.0 0.00 0.00 0.00 10 1004.6
20260509213050 97 352 0.0 11.0 0.00 0.00 0.00 10 1004.9
20260509211548 97 244 6.0 12.0 0.00 0.00 0.00 10 1005.1
20260509210055 95 313 3.0 13.0 0.00 0.00 0.00 11 1005.4
20260509204542 96 285 5.0 11.0 0.00 0.00 0.00 11 1005.6
20260509203044 95 258 7.0 15.0 0.00 0.00 0.00 11 1005.8
20260509201535 95 288 1.0 12.0 0.00 0.00 0.00 12 1006.1
20260509200036 94 276 6.0 16.0 0.00 0.00 0.00 12 1006.3
20260509194531 94 298 7.0 17.0 0.00 0.00 0.00 12 1006.6
20260509193125 94 314 6.0 12.0 0.00 0.00 0.00 12 1006.7
20260509191613 93 307 10.0 19.0 0.00 0.00 0.00 13 1006.8
20260509190110 91 271 9.0 16.0 0.00 0.00 0.00 14 1006.9
20260509184550 91 259 3.0 14.0 0.00 0.00 0.00 14 1007.1
20260509183049 91 258 4.0 11.0 0.00 0.00 0.00 14 1007.3
20260509181548 91 259 2.0 9.0 0.00 0.00 0.00 15 1007.7
20260509180016 90 310 1.0 5.0 0.00 0.00 0.00 16 1007.9
20260509174521 88 307 0.0 8.0 0.00 0.00 0.00 18 1008.0
20260509173012 88 283 2.0 4.0 0.00 0.00 0.00 18 1008.2
20260509171506 86 293 0.0 7.0 0.00 0.00 0.00 20 1008.3
20260509170012 86 213 0.0 5.0 0.00 0.00 0.00 20 1008.4
20260509164505 86 307 0.0 0.0 0.00 0.00 0.00 21 1008.6
20260509163106 84 262 0.0 3.0 0.00 0.00 0.00 24 1008.7
20260509161559 84 255 0.0 3.0 0.00 0.00 0.00 23 1008.7
20260509160058 85 118 0.0 3.0 0.00 0.00 0.00 22 1008.7
20260509154558 84 208 0.0 3.0 0.00 0.00 0.00 23 1008.7
20260509153049 82 114 1.0 4.0 0.00 0.00 0.00 24 1008.8
20260509151548 81 120 0.0 4.0 0.00 0.00 0.00 24 1008.8
20260509150043 79 162 0.0 3.0 0.00 0.00 0.00 26 1008.9
20260509144546 78 117 0.0 4.0 0.00 0.00 0.00 26 1008.9
20260509143036 76 120 0.0 2.0 0.00 0.00 0.00 29 1008.9
20260509141544 74 130 0.0 2.0 0.00 0.00 0.00 30 1008.8
20260509140037 74 120 0.0 1.0 0.00 0.00 0.00 30 1008.8
20260509134548 71 86 0.0 3.0 0.00 0.00 0.00 32 1008.6
20260509133033 67 101 0.0 2.0 0.00 0.00 0.00 35 1008.4
20260509131543 66 88 0.0 2.0 0.00 0.00 0.00 37 1008.4
20260509130041 64 117 0.0 3.0 0.00 0.00 0.00 39 1008.2
20260509124530 64 96 0.0 0.0 0.00 0.00 0.00 39 1008.0
20260509123026 64 106 0.0 2.0 0.00 0.00 0.00 37 1007.9
20260509121522 64 113 0.0 0.0 0.00 0.00 0.00 38 1007.9
20260509120017 64 138 0.0 0.0 0.00 0.00 0.00 39 1007.7
20260509114514 67 138 0.0 0.0 0.00 0.00 0.00 35 1007.6
20260509113009 69 102 0.0 0.0 0.00 0.00 0.00 31 1007.6
20260509111507 69 102 0.0 0.0 0.00 0.00 0.00 31 1007.6
20260509110015 69 102 0.0 1.0 0.00 0.00 0.00 30 1007.4
20260509104506 70 93 0.0 0.0 0.00 0.00 0.00 30 1007.4
20260509103034 69 109 0.0 0.0 0.00 0.00 0.00 30 1007.3
20260509101534 69 108 0.0 3.0 0.00 0.00 0.00 30 1007.5
20260509100035 69 108 0.0 1.0 0.00 0.00 0.00 30 1007.5
20260509094528 70 106 0.0 2.0 0.00 0.00 0.00 30 1007.5
20260509093026 70 112 0.0 0.0 0.00 0.00 0.00 30 1007.5
20260509091525 71 92 2.0 5.0 0.00 0.00 0.00 29 1007.5
20260509090027 72 127 0.0 3.0 0.00 0.00 0.00 29 1007.4
20260509084518 74 122 1.0 3.0 0.00 0.00 0.00 26 1007.5
20260509083019 77 280 0.0 5.0 0.00 0.00 0.00 24 1007.4
20260509081529 76 305 2.0 4.0 0.00 0.00 0.00 24 1007.4
20260509080014 76 296 2.0 4.0 0.00 0.00 0.00 24 1007.5
20260509074549 76 301 3.0 5.0 0.00 0.00 0.00 24 1007.6
20260509073041 76 323 3.0 8.0 0.00 0.00 0.00 24 1007.6
20260509071507 72 309 3.0 5.0 0.00 0.00 0.00 28 1007.7
20260509070005 72 84 0.0 0.0 0.00 0.00 0.00 29 1007.7
20260509064502 73 84 0.0 0.0 0.00 0.00 0.00 25 1007.4
20260509063001 74 84 0.0 0.0 0.00 0.00 0.00 25 1007.4
20260509061502 74 109 0.0 0.0 0.00 0.00 0.00 25 1007.4
20260509054616 79 304 0.0 0.0 0.00 0.00 0.00 21 1007.2
20260509053144 80 304 0.0 5.0 0.00 0.00 0.00 19 1007.1
20260509051557 79 297 0.0 0.0 0.00 0.00 0.00 21 1007.1
20260509050059 82 297 0.0 0.0 0.00 0.00 0.00 18 1007.1
20260509044553 82 357 0.0 2.0 0.00 0.00 0.00 18 1007.0
20260509043056 83 309 2.0 8.0 0.00 0.00 0.00 18 1006.8
20260509041552 83 301 0.0 4.0 0.00 0.00 0.00 18 1006.8
20260509040109 83 300 1.0 5.0 0.00 0.00 0.00 17 1006.6
20260509034521 83 295 3.0 6.0 0.00 0.00 0.00 17 1006.5
20260509033021 83 307 4.0 7.0 0.00 0.00 0.00 17 1006.4
20260509031517 83 307 2.0 6.0 0.00 0.00 0.00 17 1006.3
20260509030027 84 309 4.0 7.0 0.00 0.00 0.00 16 1006.1
20260509024518 85 302 4.0 7.0 0.00 0.00 0.00 15 1005.9